Year,Month,Day,Hour,Minute,Value (Times are PST for temperature in C)
2011,07,09,00,00,10.30
2011,07,09,00,01,10.30
2011,07,09,00,02,10.20
2011,07,09,00,03,10.20
2011,07,09,00,04,10.20
2011,07,09,00,05,10.20
2011,07,09,00,06,10.20
2011,07,09,00,07,10.20
2011,07,09,00,08,10.20
2011,07,09,00,09,10.20
2011,07,09,00,10,10.20
2011,07,09,00,11,10.10
2011,07,09,00,12,10.10
2011,07,09,00,13,10.10
2011,07,09,00,14,10.10
2011,07,09,00,15,10.10
2011,07,09,00,16,10.10
2011,07,09,00,17,10.10
2011,07,09,00,18,10.00
2011,07,09,00,19,9.90
2011,07,09,00,20,9.90
2011,07,09,00,21,9.90
2011,07,09,00,22,9.80
2011,07,09,00,23,9.80
2011,07,09,00,24,9.70
2011,07,09,00,25,9.70
2011,07,09,00,26,9.70
2011,07,09,00,27,9.70
2011,07,09,00,28,9.70
2011,07,09,00,29,9.70
2011,07,09,00,30,9.60
2011,07,09,00,31,9.60
2011,07,09,00,32,9.60
2011,07,09,00,33,9.60
2011,07,09,00,34,9.60
2011,07,09,00,35,9.60
2011,07,09,00,36,9.70
2011,07,09,00,37,9.70
2011,07,09,00,38,9.70
2011,07,09,00,39,9.70
2011,07,09,00,40,9.60
2011,07,09,00,41,9.60
2011,07,09,00,42,9.60
2011,07,09,00,43,9.60
2011,07,09,00,44,9.60
2011,07,09,00,45,9.60
2011,07,09,00,46,9.60
2011,07,09,00,47,9.50
2011,07,09,00,48,9.50
2011,07,09,00,49,9.50
2011,07,09,00,50,9.40
2011,07,09,00,51,9.40
2011,07,09,00,52,9.40
2011,07,09,00,53,9.30
2011,07,09,00,54,9.30
2011,07,09,00,55,9.30
2011,07,09,00,56,9.20
2011,07,09,00,57,9.20
2011,07,09,00,58,9.20
2011,07,09,00,59,9.10
2011,07,09,01,00,9.10
2011,07,09,01,01,9.00
2011,07,09,01,02,9.00
2011,07,09,01,03,8.90
2011,07,09,01,04,8.90
2011,07,09,01,05,8.90
2011,07,09,01,06,8.80
2011,07,09,01,07,8.80
2011,07,09,01,08,8.80
2011,07,09,01,09,8.80
2011,07,09,01,10,8.70
2011,07,09,01,11,8.70
2011,07,09,01,12,8.70
2011,07,09,01,13,8.70
2011,07,09,01,14,8.70
2011,07,09,01,15,8.70
2011,07,09,01,16,8.70
2011,07,09,01,17,8.70
2011,07,09,01,18,8.70
2011,07,09,01,19,8.60
2011,07,09,01,20,8.60
2011,07,09,01,21,8.60
2011,07,09,01,22,8.60
2011,07,09,01,23,8.60
2011,07,09,01,24,8.60
2011,07,09,01,25,8.50
2011,07,09,01,26,8.50
2011,07,09,01,27,8.50
2011,07,09,01,28,8.50
2011,07,09,01,29,8.50
2011,07,09,01,30,8.50
2011,07,09,01,31,8.40
2011,07,09,01,32,8.40
2011,07,09,01,33,8.40
2011,07,09,01,34,8.40
2011,07,09,01,35,8.40
2011,07,09,01,36,8.30
2011,07,09,01,37,8.30
2011,07,09,01,38,8.30
2011,07,09,01,39,8.30
2011,07,09,01,40,8.30
2011,07,09,01,41,8.30
2011,07,09,01,42,8.30
2011,07,09,01,43,8.30
2011,07,09,01,44,8.30
2011,07,09,01,45,8.30
2011,07,09,01,46,8.30
2011,07,09,01,47,8.30
2011,07,09,01,48,8.30
2011,07,09,01,49,8.30
2011,07,09,01,50,8.30
2011,07,09,01,51,8.30
2011,07,09,01,52,8.40
2011,07,09,01,53,8.40
2011,07,09,01,54,8.40
2011,07,09,01,55,8.40
2011,07,09,01,56,8.40
2011,07,09,01,57,8.40
2011,07,09,01,58,8.40
2011,07,09,01,59,8.40
2011,07,09,02,00,8.40
2011,07,09,02,01,8.40
2011,07,09,02,02,8.40
2011,07,09,02,03,8.40
2011,07,09,02,04,8.30
2011,07,09,02,05,8.30
2011,07,09,02,06,8.30
2011,07,09,02,07,8.30
2011,07,09,02,08,8.20
2011,07,09,02,09,8.20
2011,07,09,02,10,8.20
2011,07,09,02,11,8.20
2011,07,09,02,12,8.20
2011,07,09,02,13,8.20
2011,07,09,02,14,8.20
2011,07,09,02,15,8.10
2011,07,09,02,16,8.10
2011,07,09,02,17,8.10
2011,07,09,02,18,8.10
2011,07,09,02,19,8.00
2011,07,09,02,20,8.00
2011,07,09,02,21,8.00
2011,07,09,02,22,8.00
2011,07,09,02,23,7.90
2011,07,09,02,24,7.90
2011,07,09,02,25,7.90
2011,07,09,02,26,7.90
2011,07,09,02,27,7.90
2011,07,09,02,28,7.80
2011,07,09,02,29,7.80
2011,07,09,02,30,7.80
2011,07,09,02,31,7.80
2011,07,09,02,32,7.80
2011,07,09,02,33,7.80
2011,07,09,02,34,7.80
2011,07,09,02,35,7.70
2011,07,09,02,36,7.70
2011,07,09,02,37,7.70
2011,07,09,02,38,7.70
2011,07,09,02,39,7.60
2011,07,09,02,40,7.60
2011,07,09,02,41,7.60
2011,07,09,02,42,7.60
2011,07,09,02,43,7.60
2011,07,09,02,44,7.60
2011,07,09,02,45,7.60
2011,07,09,02,46,7.60
2011,07,09,02,47,7.60
2011,07,09,02,48,7.70
2011,07,09,02,49,7.70
2011,07,09,02,50,7.70
2011,07,09,02,51,7.70
2011,07,09,02,52,7.80
2011,07,09,02,53,7.80
2011,07,09,02,54,7.80
2011,07,09,02,55,7.80
2011,07,09,02,56,7.80
2011,07,09,02,57,7.80
2011,07,09,02,58,7.90
2011,07,09,02,59,7.90
2011,07,09,03,00,7.90
2011,07,09,03,01,7.90
2011,07,09,03,02,7.80
2011,07,09,03,03,7.80
2011,07,09,03,04,7.80
2011,07,09,03,05,7.80
2011,07,09,03,06,7.80
2011,07,09,03,07,7.70
2011,07,09,03,08,7.70
2011,07,09,03,09,7.70
2011,07,09,03,10,7.60
2011,07,09,03,11,7.60
2011,07,09,03,12,7.60
2011,07,09,03,13,7.50
2011,07,09,03,14,7.50
2011,07,09,03,15,7.50
2011,07,09,03,16,7.50
2011,07,09,03,17,7.50
2011,07,09,03,18,7.50
2011,07,09,03,19,7.50
2011,07,09,03,20,7.50
2011,07,09,03,21,7.40
2011,07,09,03,22,7.40
2011,07,09,03,23,7.40
2011,07,09,03,24,7.40
2011,07,09,03,25,7.40
2011,07,09,03,26,7.30
2011,07,09,03,27,7.30
2011,07,09,03,28,7.30
2011,07,09,03,29,7.30
2011,07,09,03,30,7.20
2011,07,09,03,31,7.20
2011,07,09,03,32,7.20
2011,07,09,03,33,7.10
2011,07,09,03,34,7.10
2011,07,09,03,35,7.10
2011,07,09,03,36,7.10
2011,07,09,03,37,7.00
2011,07,09,03,38,7.00
2011,07,09,03,39,7.00
2011,07,09,03,40,7.00
2011,07,09,03,41,7.00
2011,07,09,03,42,7.00
2011,07,09,03,43,7.00
2011,07,09,03,44,7.00
2011,07,09,03,45,7.00
2011,07,09,03,46,7.00
2011,07,09,03,47,7.00
2011,07,09,03,48,7.00
2011,07,09,03,49,6.90
2011,07,09,03,50,7.00
2011,07,09,03,51,7.00
2011,07,09,03,52,7.00
2011,07,09,03,53,7.10
2011,07,09,03,54,7.10
2011,07,09,03,55,7.10
2011,07,09,03,56,7.10
2011,07,09,03,57,7.10
2011,07,09,03,58,7.10
2011,07,09,03,59,7.20
2011,07,09,04,00,7.20
2011,07,09,04,01,7.20
2011,07,09,04,02,7.30
2011,07,09,04,03,7.30
2011,07,09,04,04,7.30
2011,07,09,04,05,7.30
2011,07,09,04,06,7.30
2011,07,09,04,07,7.20
2011,07,09,04,08,7.20
2011,07,09,04,09,7.20
2011,07,09,04,10,7.20
2011,07,09,04,11,7.20
2011,07,09,04,12,7.20
2011,07,09,04,13,7.20
2011,07,09,04,14,7.30
2011,07,09,04,15,7.30
2011,07,09,04,16,7.30
2011,07,09,04,17,7.30
2011,07,09,04,18,7.30
2011,07,09,04,19,7.30
2011,07,09,04,20,7.30
2011,07,09,04,21,7.30
2011,07,09,04,22,7.30
2011,07,09,04,23,7.30
2011,07,09,04,24,7.30
2011,07,09,04,25,7.20
2011,07,09,04,26,7.20
2011,07,09,04,27,7.20
2011,07,09,04,28,7.20
2011,07,09,04,29,7.20
2011,07,09,04,30,7.20
2011,07,09,04,31,7.10
2011,07,09,04,32,7.10
2011,07,09,04,33,7.10
2011,07,09,04,34,7.10
2011,07,09,04,35,7.10
2011,07,09,04,36,7.10
2011,07,09,04,37,7.10
2011,07,09,04,38,7.10
2011,07,09,04,39,7.10
2011,07,09,04,40,7.10
2011,07,09,04,41,7.00
2011,07,09,04,42,7.00
2011,07,09,04,43,7.00
2011,07,09,04,44,7.00
2011,07,09,04,45,7.00
2011,07,09,04,46,7.00
2011,07,09,04,47,7.00
2011,07,09,04,48,6.90
2011,07,09,04,49,6.90
2011,07,09,04,50,6.80
2011,07,09,04,51,6.80
2011,07,09,04,52,6.80
2011,07,09,04,53,6.80
2011,07,09,04,54,6.70
2011,07,09,04,55,6.70
2011,07,09,04,56,6.70
2011,07,09,04,57,6.60
2011,07,09,04,58,6.60
2011,07,09,04,59,6.60
2011,07,09,05,00,6.60
2011,07,09,05,01,6.60
2011,07,09,05,02,6.60
2011,07,09,05,03,6.60
2011,07,09,05,04,6.60
2011,07,09,05,05,6.60
2011,07,09,05,06,6.60
2011,07,09,05,07,6.60
2011,07,09,05,08,6.60
2011,07,09,05,09,6.60
2011,07,09,05,10,6.60
2011,07,09,05,11,6.60
2011,07,09,05,12,6.60
2011,07,09,05,13,6.60
2011,07,09,05,14,6.60
2011,07,09,05,15,6.60
2011,07,09,05,16,6.60
2011,07,09,05,17,6.60
2011,07,09,05,18,6.50
2011,07,09,05,19,6.40
2011,07,09,05,20,6.40
2011,07,09,05,21,6.40
2011,07,09,05,22,6.40
2011,07,09,05,23,6.40
2011,07,09,05,24,6.40
2011,07,09,05,25,6.40
2011,07,09,05,26,6.40
2011,07,09,05,27,6.40
2011,07,09,05,28,6.40
2011,07,09,05,29,6.40
2011,07,09,05,30,6.40
2011,07,09,05,31,6.40
2011,07,09,05,32,6.40
2011,07,09,05,33,6.40
2011,07,09,05,34,6.40
2011,07,09,05,35,6.40
2011,07,09,05,36,6.50
2011,07,09,05,37,6.60
2011,07,09,05,38,6.60
2011,07,09,05,39,6.60
2011,07,09,05,40,6.60
2011,07,09,05,41,6.60
2011,07,09,05,42,6.60
2011,07,09,05,43,6.60
2011,07,09,05,44,6.60
2011,07,09,05,45,6.60
2011,07,09,05,46,6.60
2011,07,09,05,47,6.60
2011,07,09,05,48,6.60
2011,07,09,05,49,6.60
2011,07,09,05,50,6.50
2011,07,09,05,51,6.40
2011,07,09,05,52,6.40
2011,07,09,05,53,6.40
2011,07,09,05,54,6.40
2011,07,09,05,55,6.40
2011,07,09,05,56,6.50
2011,07,09,05,57,6.60
2011,07,09,05,58,6.60
2011,07,09,05,59,6.60
2011,07,09,06,00,6.60
2011,07,09,06,01,6.60
2011,07,09,06,02,6.60
2011,07,09,06,03,6.60
2011,07,09,06,04,6.60
2011,07,09,06,05,6.50
2011,07,09,06,06,6.40
2011,07,09,06,07,6.40
2011,07,09,06,08,6.40
2011,07,09,06,09,6.50
2011,07,09,06,10,6.60
2011,07,09,06,11,6.60
2011,07,09,06,12,6.60
2011,07,09,06,13,6.60
2011,07,09,06,14,6.60
2011,07,09,06,15,6.70
2011,07,09,06,16,6.70
2011,07,09,06,17,6.80
2011,07,09,06,18,6.80
2011,07,09,06,19,6.80
2011,07,09,06,20,6.80
2011,07,09,06,21,6.80
2011,07,09,06,22,6.90
2011,07,09,06,23,6.90
2011,07,09,06,24,6.90
2011,07,09,06,25,7.00
2011,07,09,06,26,7.00
2011,07,09,06,27,7.00
2011,07,09,06,28,7.10
2011,07,09,06,29,7.10
2011,07,09,06,30,7.10
2011,07,09,06,31,7.20
2011,07,09,06,32,7.20
2011,07,09,06,33,7.30
2011,07,09,06,34,7.30
2011,07,09,06,35,7.30
2011,07,09,06,36,7.30
2011,07,09,06,37,7.40
2011,07,09,06,38,7.40
2011,07,09,06,39,7.40
2011,07,09,06,40,7.40
2011,07,09,06,41,7.50
2011,07,09,06,42,7.50
2011,07,09,06,43,7.50
2011,07,09,06,44,7.50
2011,07,09,06,45,7.60
2011,07,09,06,46,7.60
2011,07,09,06,47,7.60
2011,07,09,06,48,7.70
2011,07,09,06,49,7.70
2011,07,09,06,50,7.80
2011,07,09,06,51,7.80
2011,07,09,06,52,7.80
2011,07,09,06,53,7.90
2011,07,09,06,54,8.00
2011,07,09,06,55,8.00
2011,07,09,06,56,8.10
2011,07,09,06,57,8.10
2011,07,09,06,58,8.20
2011,07,09,06,59,8.20
2011,07,09,07,00,8.30
2011,07,09,07,01,8.40
2011,07,09,07,02,8.40
2011,07,09,07,03,8.50
2011,07,09,07,04,8.60
2011,07,09,07,05,8.70
2011,07,09,07,06,8.70
2011,07,09,07,07,8.70
2011,07,09,07,08,8.80
2011,07,09,07,09,8.90
2011,07,09,07,10,8.90
2011,07,09,07,11,9.00
2011,07,09,07,12,9.00
2011,07,09,07,13,9.10
2011,07,09,07,14,9.20
2011,07,09,07,15,9.30
2011,07,09,07,16,9.40
2011,07,09,07,17,9.50
2011,07,09,07,18,9.60
2011,07,09,07,19,9.70
2011,07,09,07,20,9.80
2011,07,09,07,21,9.90
2011,07,09,07,22,10.00
2011,07,09,07,23,10.10
2011,07,09,07,24,10.20
2011,07,09,07,25,10.30
2011,07,09,07,26,10.40
2011,07,09,07,27,10.40
2011,07,09,07,28,10.60
2011,07,09,07,29,10.60
2011,07,09,07,30,10.70
2011,07,09,07,31,10.80
2011,07,09,07,32,10.80
2011,07,09,07,33,10.90
2011,07,09,07,34,10.90
2011,07,09,07,35,10.90
2011,07,09,07,36,10.90
2011,07,09,07,37,10.90
2011,07,09,07,38,10.90
2011,07,09,07,39,10.90
2011,07,09,07,40,10.90
2011,07,09,07,41,11.00
2011,07,09,07,42,11.10
2011,07,09,07,43,11.10
2011,07,09,07,44,11.20
2011,07,09,07,45,11.20
2011,07,09,07,46,11.30
2011,07,09,07,47,11.40
2011,07,09,07,48,11.50
2011,07,09,07,49,11.60
2011,07,09,07,50,11.70
2011,07,09,07,51,11.80
2011,07,09,07,52,11.90
2011,07,09,07,53,12.00
2011,07,09,07,54,12.00
2011,07,09,07,55,12.10
2011,07,09,07,56,12.20
2011,07,09,07,57,12.30
2011,07,09,07,58,12.40
2011,07,09,07,59,12.50
2011,07,09,08,00,12.60
2011,07,09,08,01,12.70
2011,07,09,08,02,12.80
2011,07,09,08,03,12.80
2011,07,09,08,04,12.90
2011,07,09,08,05,13.00
2011,07,09,08,06,13.10
2011,07,09,08,07,13.20
2011,07,09,08,08,13.30
2011,07,09,08,09,13.50
2011,07,09,08,10,13.60
2011,07,09,08,11,13.70
2011,07,09,08,12,13.80
2011,07,09,08,13,13.90
2011,07,09,08,14,14.00
2011,07,09,08,15,14.20
2011,07,09,08,16,14.30
2011,07,09,08,17,14.40
2011,07,09,08,18,14.50
2011,07,09,08,19,14.50
2011,07,09,08,20,14.60
2011,07,09,08,21,14.70
2011,07,09,08,22,14.70
2011,07,09,08,23,14.80
2011,07,09,08,24,14.80
2011,07,09,08,25,14.90
2011,07,09,08,26,14.90
2011,07,09,08,27,14.90
2011,07,09,08,28,14.80
2011,07,09,08,29,14.80
2011,07,09,08,30,14.70
2011,07,09,08,31,14.60
2011,07,09,08,32,14.50
2011,07,09,08,33,14.50
2011,07,09,08,34,14.40
2011,07,09,08,35,14.50
2011,07,09,08,36,14.50
2011,07,09,08,37,14.40
2011,07,09,08,38,14.40
2011,07,09,08,39,14.40
2011,07,09,08,40,14.40
2011,07,09,08,41,14.50
2011,07,09,08,42,14.50
2011,07,09,08,43,14.50
2011,07,09,08,44,14.60
2011,07,09,08,45,14.60
2011,07,09,08,46,14.50
2011,07,09,08,47,14.50
2011,07,09,08,48,14.50
2011,07,09,08,49,14.50
2011,07,09,08,50,14.50
2011,07,09,08,51,14.60
2011,07,09,08,52,14.60
2011,07,09,08,53,14.50
2011,07,09,08,54,14.30
2011,07,09,08,55,14.20
2011,07,09,08,56,14.20
2011,07,09,08,57,14.10
2011,07,09,08,58,14.10
2011,07,09,08,59,14.10
2011,07,09,09,00,14.10
2011,07,09,09,01,14.10
2011,07,09,09,02,14.10
2011,07,09,09,03,14.10
2011,07,09,09,04,14.10
2011,07,09,09,05,14.10
2011,07,09,09,06,14.10
2011,07,09,09,07,14.10
2011,07,09,09,08,14.10
2011,07,09,09,09,14.20
2011,07,09,09,10,14.20
2011,07,09,09,11,14.20
2011,07,09,09,12,14.20
2011,07,09,09,13,14.20
2011,07,09,09,14,14.20
2011,07,09,09,15,14.20
2011,07,09,09,16,14.20
2011,07,09,09,17,14.30
2011,07,09,09,18,14.30
2011,07,09,09,19,14.40
2011,07,09,09,20,14.40
2011,07,09,09,21,14.50
2011,07,09,09,22,14.50
2011,07,09,09,23,14.50
2011,07,09,09,24,14.60
2011,07,09,09,25,14.70
2011,07,09,09,26,14.80
2011,07,09,09,27,14.90
2011,07,09,09,28,15.10
2011,07,09,09,29,15.20
2011,07,09,09,30,15.30
2011,07,09,09,31,15.50
2011,07,09,09,32,15.60
2011,07,09,09,33,15.60
2011,07,09,09,34,15.60
2011,07,09,09,35,15.50
2011,07,09,09,36,15.40
2011,07,09,09,37,15.30
2011,07,09,09,38,15.20
2011,07,09,09,39,15.20
2011,07,09,09,40,15.10
2011,07,09,09,41,15.10
2011,07,09,09,42,15.10
2011,07,09,09,43,15.00
2011,07,09,09,44,14.90
2011,07,09,09,45,14.80
2011,07,09,09,46,14.80
2011,07,09,09,47,14.80
2011,07,09,09,48,14.80
2011,07,09,09,49,14.80
2011,07,09,09,50,14.70
2011,07,09,09,51,14.70
2011,07,09,09,52,14.60
2011,07,09,09,53,14.60
2011,07,09,09,54,14.60
2011,07,09,09,55,14.50
2011,07,09,09,56,14.50
2011,07,09,09,57,14.40
2011,07,09,09,58,14.40
2011,07,09,09,59,14.30
2011,07,09,10,00,14.30
2011,07,09,10,01,14.30
2011,07,09,10,02,14.30
2011,07,09,10,03,14.40
2011,07,09,10,04,14.40
2011,07,09,10,05,14.50
2011,07,09,10,06,14.50
2011,07,09,10,07,14.60
2011,07,09,10,08,14.60
2011,07,09,10,09,14.70
2011,07,09,10,10,14.70
2011,07,09,10,11,14.80
2011,07,09,10,12,14.80
2011,07,09,10,13,14.80
2011,07,09,10,14,14.90
2011,07,09,10,15,15.00
2011,07,09,10,16,15.10
2011,07,09,10,17,15.20
2011,07,09,10,18,15.20
2011,07,09,10,19,15.30
2011,07,09,10,20,15.40
2011,07,09,10,21,15.50
2011,07,09,10,22,15.60
2011,07,09,10,23,15.70
2011,07,09,10,24,15.70
2011,07,09,10,25,15.80
2011,07,09,10,26,15.70
2011,07,09,10,27,15.70
2011,07,09,10,28,15.60
2011,07,09,10,29,15.60
2011,07,09,10,30,15.50
2011,07,09,10,31,15.60
2011,07,09,10,32,15.60
2011,07,09,10,33,15.50
2011,07,09,10,34,15.50
2011,07,09,10,35,15.40
2011,07,09,10,36,15.40
2011,07,09,10,37,15.30
2011,07,09,10,38,15.10
2011,07,09,10,39,14.90
2011,07,09,10,40,14.90
2011,07,09,10,41,14.90
2011,07,09,10,42,14.80
2011,07,09,10,43,14.80
2011,07,09,10,44,14.90
2011,07,09,10,45,15.00
2011,07,09,10,46,15.10
2011,07,09,10,47,15.20
2011,07,09,10,48,15.30
2011,07,09,10,49,15.30
2011,07,09,10,50,15.30
2011,07,09,10,51,15.30
2011,07,09,10,52,15.30
2011,07,09,10,53,15.30
2011,07,09,10,54,15.30
2011,07,09,10,55,15.20
2011,07,09,10,56,15.10
2011,07,09,10,57,15.10
2011,07,09,10,58,15.10
2011,07,09,10,59,15.10
2011,07,09,11,00,15.10
2011,07,09,11,01,15.10
2011,07,09,11,02,15.10
2011,07,09,11,03,15.20
2011,07,09,11,04,15.30
2011,07,09,11,05,15.30
2011,07,09,11,06,15.40
2011,07,09,11,07,15.40
2011,07,09,11,08,15.40
2011,07,09,11,09,15.40
2011,07,09,11,10,15.50
2011,07,09,11,11,15.60
2011,07,09,11,12,15.70
2011,07,09,11,13,15.80
2011,07,09,11,14,15.80
2011,07,09,11,15,15.90
2011,07,09,11,16,15.80
2011,07,09,11,17,15.80
2011,07,09,11,18,15.70
2011,07,09,11,19,15.70
2011,07,09,11,20,15.70
2011,07,09,11,21,15.80
2011,07,09,11,22,15.90
2011,07,09,11,23,15.90
2011,07,09,11,24,15.80
2011,07,09,11,25,15.80
2011,07,09,11,26,15.80
2011,07,09,11,27,15.80
2011,07,09,11,28,15.90
2011,07,09,11,29,16.00
2011,07,09,11,30,16.10
2011,07,09,11,31,16.10
2011,07,09,11,32,16.10
2011,07,09,11,33,15.90
2011,07,09,11,34,15.80
2011,07,09,11,35,15.70
2011,07,09,11,36,15.50
2011,07,09,11,37,15.50
2011,07,09,11,38,15.30
2011,07,09,11,39,15.30
2011,07,09,11,40,15.30
2011,07,09,11,41,15.30
2011,07,09,11,42,15.30
2011,07,09,11,43,15.30
2011,07,09,11,44,15.30
2011,07,09,11,45,15.30
2011,07,09,11,46,15.30
2011,07,09,11,47,15.30
2011,07,09,11,48,15.20
2011,07,09,11,49,15.20
2011,07,09,11,50,15.30
2011,07,09,11,51,15.30
2011,07,09,11,52,15.20
2011,07,09,11,53,15.20
2011,07,09,11,54,15.30
2011,07,09,11,55,15.40
2011,07,09,11,56,15.50
2011,07,09,11,57,15.60
2011,07,09,11,58,15.60
2011,07,09,11,59,15.60
2011,07,09,12,00,15.70
2011,07,09,12,01,15.80
2011,07,09,12,02,15.80
2011,07,09,12,03,15.80
2011,07,09,12,04,15.80
2011,07,09,12,05,15.80
2011,07,09,12,06,15.80
2011,07,09,12,07,16.00
2011,07,09,12,08,16.10
2011,07,09,12,09,16.10
2011,07,09,12,10,16.10
2011,07,09,12,11,16.10
2011,07,09,12,12,16.00
2011,07,09,12,13,15.90
2011,07,09,12,14,15.90
2011,07,09,12,15,15.90
2011,07,09,12,16,15.90
2011,07,09,12,17,15.90
2011,07,09,12,18,15.90
2011,07,09,12,19,15.80
2011,07,09,12,20,15.80
2011,07,09,12,21,15.80
2011,07,09,12,22,15.80
2011,07,09,12,23,15.80
2011,07,09,12,24,15.80
2011,07,09,12,25,15.80
2011,07,09,12,26,15.80
2011,07,09,12,27,15.80
2011,07,09,12,28,15.80
2011,07,09,12,29,15.80
2011,07,09,12,30,15.80
2011,07,09,12,31,15.80
2011,07,09,12,32,15.80
2011,07,09,12,33,15.80
2011,07,09,12,34,15.80
2011,07,09,12,35,15.80
2011,07,09,12,36,15.90
2011,07,09,12,37,16.00
2011,07,09,12,38,15.90
2011,07,09,12,39,15.90
2011,07,09,12,40,15.90
2011,07,09,12,41,16.00
2011,07,09,12,42,16.10
2011,07,09,12,43,16.10
2011,07,09,12,44,16.10
2011,07,09,12,45,16.10
2011,07,09,12,46,16.10
2011,07,09,12,47,16.10
2011,07,09,12,48,15.90
2011,07,09,12,49,16.00
2011,07,09,12,50,16.00
2011,07,09,12,51,16.00
2011,07,09,12,52,16.10
2011,07,09,12,53,16.00
2011,07,09,12,54,16.00
2011,07,09,12,55,16.00
2011,07,09,12,56,16.10
2011,07,09,12,57,16.20
2011,07,09,12,58,16.40
2011,07,09,12,59,16.40
2011,07,09,13,00,16.40
2011,07,09,13,01,16.30
2011,07,09,13,02,16.20
2011,07,09,13,03,16.10
2011,07,09,13,04,15.90
2011,07,09,13,05,15.90
2011,07,09,13,06,15.90
2011,07,09,13,07,15.90
2011,07,09,13,08,15.90
2011,07,09,13,09,15.80
2011,07,09,13,10,15.80
2011,07,09,13,11,15.90
2011,07,09,13,12,16.00
2011,07,09,13,13,16.10
2011,07,09,13,14,16.10
2011,07,09,13,15,16.00
2011,07,09,13,16,16.00
2011,07,09,13,17,16.10
2011,07,09,13,18,16.10
2011,07,09,13,19,16.10
2011,07,09,13,20,16.20
2011,07,09,13,21,16.20
2011,07,09,13,22,16.10
2011,07,09,13,23,16.10
2011,07,09,13,24,16.10
2011,07,09,13,25,16.10
2011,07,09,13,26,16.10
2011,07,09,13,27,16.10
2011,07,09,13,28,16.20
2011,07,09,13,29,16.40
2011,07,09,13,30,16.50
2011,07,09,13,31,16.60
2011,07,09,13,32,16.60
2011,07,09,13,33,16.60
2011,07,09,13,34,16.80
2011,07,09,13,35,16.80
2011,07,09,13,36,16.80
2011,07,09,13,37,16.70
2011,07,09,13,38,16.70
2011,07,09,13,39,16.60
2011,07,09,13,40,16.70
2011,07,09,13,41,16.60
2011,07,09,13,42,16.50
2011,07,09,13,43,16.40
2011,07,09,13,44,16.50
2011,07,09,13,45,16.60
2011,07,09,13,46,16.60
2011,07,09,13,47,16.50
2011,07,09,13,48,16.40
2011,07,09,13,49,16.40
2011,07,09,13,50,16.40
2011,07,09,13,51,16.20
2011,07,09,13,52,16.20
2011,07,09,13,53,16.10
2011,07,09,13,54,16.10
2011,07,09,13,55,16.10
2011,07,09,13,56,16.10
2011,07,09,13,57,16.20
2011,07,09,13,58,16.40
2011,07,09,13,59,16.40
2011,07,09,14,00,16.50
2011,07,09,14,01,16.60
2011,07,09,14,02,16.60
2011,07,09,14,03,16.60
2011,07,09,14,04,16.60
2011,07,09,14,05,16.70
2011,07,09,14,06,16.80
2011,07,09,14,07,16.80
2011,07,09,14,08,16.80
2011,07,09,14,09,16.70
2011,07,09,14,10,16.70
2011,07,09,14,11,16.70
2011,07,09,14,12,16.80
2011,07,09,14,13,16.70
2011,07,09,14,14,16.60
2011,07,09,14,15,16.60
2011,07,09,14,16,16.60
2011,07,09,14,17,16.60
2011,07,09,14,18,16.60
2011,07,09,14,19,16.70
2011,07,09,14,20,16.70
2011,07,09,14,21,16.70
2011,07,09,14,22,16.70
2011,07,09,14,23,16.50
2011,07,09,14,24,16.40
2011,07,09,14,25,16.40
2011,07,09,14,26,16.40
2011,07,09,14,27,16.40
2011,07,09,14,28,16.40
2011,07,09,14,29,16.40
2011,07,09,14,30,16.40
2011,07,09,14,31,16.40
2011,07,09,14,32,16.50
2011,07,09,14,33,16.60
2011,07,09,14,34,16.70
2011,07,09,14,35,16.70
2011,07,09,14,36,16.70
2011,07,09,14,37,16.60
2011,07,09,14,38,16.60
2011,07,09,14,39,16.50
2011,07,09,14,40,16.60
2011,07,09,14,41,16.50
2011,07,09,14,42,16.40
2011,07,09,14,43,16.40
2011,07,09,14,44,16.40
2011,07,09,14,45,16.40
2011,07,09,14,46,16.30
2011,07,09,14,47,16.30
2011,07,09,14,48,16.20
2011,07,09,14,49,16.20
2011,07,09,14,50,16.10
2011,07,09,14,51,16.20
2011,07,09,14,52,16.20
2011,07,09,14,53,16.10
2011,07,09,14,54,16.10
2011,07,09,14,55,16.20
2011,07,09,14,56,16.30
2011,07,09,14,57,16.50
2011,07,09,14,58,16.60
2011,07,09,14,59,16.70
2011,07,09,15,00,16.60
2011,07,09,15,01,16.60
2011,07,09,15,02,16.60
2011,07,09,15,03,16.80
2011,07,09,15,04,16.70
2011,07,09,15,05,16.70
2011,07,09,15,06,16.70
2011,07,09,15,07,16.70
2011,07,09,15,08,16.70
2011,07,09,15,09,16.50
2011,07,09,15,10,16.60
2011,07,09,15,11,16.70
2011,07,09,15,12,16.80
2011,07,09,15,13,16.90
2011,07,09,15,14,16.90
2011,07,09,15,15,17.00
2011,07,09,15,16,17.10
2011,07,09,15,17,17.20
2011,07,09,15,18,17.20
2011,07,09,15,19,17.20
2011,07,09,15,20,17.20
2011,07,09,15,21,17.10
2011,07,09,15,22,17.00
2011,07,09,15,23,16.80
2011,07,09,15,24,16.80
2011,07,09,15,25,16.90
2011,07,09,15,26,17.00
2011,07,09,15,27,17.10
2011,07,09,15,28,17.20
2011,07,09,15,29,17.30
2011,07,09,15,30,17.30
2011,07,09,15,31,17.10
2011,07,09,15,32,17.00
2011,07,09,15,33,16.90
2011,07,09,15,34,16.90
2011,07,09,15,35,17.10
2011,07,09,15,36,17.20
2011,07,09,15,37,17.30
2011,07,09,15,38,17.50
2011,07,09,15,39,17.60
2011,07,09,15,40,17.80
2011,07,09,15,41,17.70
2011,07,09,15,42,17.70
2011,07,09,15,43,17.70
2011,07,09,15,44,17.80
2011,07,09,15,45,17.90
2011,07,09,15,46,18.00
2011,07,09,15,47,18.20
2011,07,09,15,48,18.20
2011,07,09,15,49,18.10
2011,07,09,15,50,17.90
2011,07,09,15,51,17.90
2011,07,09,15,52,17.80
2011,07,09,15,53,17.60
2011,07,09,15,54,17.40
2011,07,09,15,55,17.30
2011,07,09,15,56,17.20
2011,07,09,15,57,17.20
2011,07,09,15,58,17.30
2011,07,09,15,59,17.50
2011,07,09,16,00,17.70
2011,07,09,16,01,17.90
2011,07,09,16,02,17.90
2011,07,09,16,03,18.00
2011,07,09,16,04,18.10
2011,07,09,16,05,17.90
2011,07,09,16,06,17.80
2011,07,09,16,07,17.70
2011,07,09,16,08,17.50
2011,07,09,16,09,17.50
2011,07,09,16,10,17.40
2011,07,09,16,11,17.40
2011,07,09,16,12,17.30
2011,07,09,16,13,17.30
2011,07,09,16,14,17.20
2011,07,09,16,15,17.10
2011,07,09,16,16,17.00
2011,07,09,16,17,17.00
2011,07,09,16,18,16.90
2011,07,09,16,19,17.00
2011,07,09,16,20,17.10
2011,07,09,16,21,17.30
2011,07,09,16,22,17.20
2011,07,09,16,23,17.20
2011,07,09,16,24,17.10
2011,07,09,16,25,17.10
2011,07,09,16,26,17.10
2011,07,09,16,27,17.10
2011,07,09,16,28,17.20
2011,07,09,16,29,17.30
2011,07,09,16,30,17.40
2011,07,09,16,31,17.60
2011,07,09,16,32,17.70
2011,07,09,16,33,17.70
2011,07,09,16,34,17.50
2011,07,09,16,35,17.50
2011,07,09,16,36,17.50
2011,07,09,16,37,17.50
2011,07,09,16,38,17.50
2011,07,09,16,39,17.60
2011,07,09,16,40,17.60
2011,07,09,16,41,17.70
2011,07,09,16,42,17.70
2011,07,09,16,43,17.70
2011,07,09,16,44,17.60
2011,07,09,16,45,17.60
2011,07,09,16,46,17.70
2011,07,09,16,47,17.60
2011,07,09,16,48,17.50
2011,07,09,16,49,17.50
2011,07,09,16,50,17.60
2011,07,09,16,51,17.70
2011,07,09,16,52,17.70
2011,07,09,16,53,17.80
2011,07,09,16,54,17.80
2011,07,09,16,55,17.90
2011,07,09,16,56,17.90
2011,07,09,16,57,17.90
2011,07,09,16,58,17.90
2011,07,09,16,59,17.90
2011,07,09,17,00,17.80
2011,07,09,17,01,17.70
2011,07,09,17,02,17.70
2011,07,09,17,03,17.70
2011,07,09,17,04,17.80
2011,07,09,17,05,17.90
2011,07,09,17,06,17.90
2011,07,09,17,07,17.80
2011,07,09,17,08,17.70
2011,07,09,17,09,17.80
2011,07,09,17,10,17.90
2011,07,09,17,11,17.90
2011,07,09,17,12,17.90
2011,07,09,17,13,17.90
2011,07,09,17,14,17.90
2011,07,09,17,15,17.90
2011,07,09,17,16,17.80
2011,07,09,17,17,17.80
2011,07,09,17,18,17.80
2011,07,09,17,19,17.90
2011,07,09,17,20,17.90
2011,07,09,17,21,17.90
2011,07,09,17,22,17.80
2011,07,09,17,23,17.80
2011,07,09,17,24,17.80
2011,07,09,17,25,17.80
2011,07,09,17,26,17.80
2011,07,09,17,27,17.80
2011,07,09,17,28,17.80
2011,07,09,17,29,17.80
2011,07,09,17,30,17.80
2011,07,09,17,31,17.80
2011,07,09,17,32,17.70
2011,07,09,17,33,17.70
2011,07,09,17,34,17.50
2011,07,09,17,35,17.50
2011,07,09,17,36,17.50
2011,07,09,17,37,17.50